| time (UTC) | temp F | wind direction | speed MPH | gust MPH | rain 1hr in | rain 24hr in | rain mn in | humidity % | barometer mb |
| 20260503033820 | 38 | 116 | 0.0 | 1.0 | 0.00 | 0.12 | 0.12 | 73 | 1021.2 |
| 20260503033317 | 38 | 83 | 1.0 | 1.0 | 0.00 | 0.12 | 0.12 | 73 | 1021.0 |
| 20260503032815 | 38 | 103 | 1.0 | 1.0 | 0.00 | 0.12 | 0.12 | 72 | 1021.0 |
| 20260503032314 | 38 | 111 | 0.0 | 0.0 | 0.00 | 0.12 | 0.12 | 72 | 1021.1 |
| 20260503031811 | 38 | 113 | 1.0 | 2.0 | 0.00 | 0.12 | 0.12 | 73 | 1021.3 |
| 20260503031309 | 39 | 109 | 1.0 | 1.0 | 0.00 | 0.12 | 0.12 | 71 | 1021.3 |
| 20260503030805 | 39 | 108 | 1.0 | 1.0 | 0.00 | 0.12 | 0.12 | 70 | 1021.2 |
| 20260503030301 | 40 | 117 | 0.0 | 1.0 | 0.00 | 0.12 | 0.12 | 67 | 1021.3 |
| 20260503025758 | 41 | 99 | 0.0 | 0.0 | 0.00 | 0.12 | 0.12 | 65 | 1021.3 |
| 20260503025256 | 41 | 89 | 0.0 | 0.0 | 0.00 | 0.12 | 0.12 | 64 | 1021.3 |
| 20260503024752 | 41 | 93 | 1.0 | 1.0 | 0.00 | 0.12 | 0.12 | 63 | 1021.5 |
| 20260503024249 | 42 | 91 | 1.0 | 2.0 | 0.00 | 0.12 | 0.12 | 63 | 1021.1 |
| 20260503023746 | 42 | 50 | 1.0 | 1.0 | 0.00 | 0.12 | 0.12 | 63 | 1021.6 |
| 20260503023243 | 42 | 94 | 1.0 | 2.0 | 0.00 | 0.12 | 0.12 | 62 | 1021.2 |
| 20260503022739 | 42 | 282 | 3.0 | 5.0 | 0.00 | 0.12 | 0.12 | 63 | 1021.4 |
| 20260503022234 | 42 | 276 | 2.0 | 2.0 | 0.00 | 0.12 | 0.12 | 62 | 1021.5 |
| 20260503021731 | 42 | 72 | 2.0 | 2.0 | 0.00 | 0.12 | 0.12 | 61 | 1021.4 |
| 20260503021227 | 42 | 352 | 4.0 | 5.0 | 0.00 | 0.12 | 0.12 | 60 | 1021.4 |
| 20260503020725 | 42 | 348 | 2.0 | 2.0 | 0.00 | 0.12 | 0.12 | 60 | 1021.6 |
| 20260503020222 | 43 | 295 | 3.0 | 3.0 | 0.00 | 0.12 | 0.12 | 59 | 1021.5 |
| 20260503015719 | 43 | 4 | 3.0 | 5.0 | 0.00 | 0.12 | 0.12 | 59 | 1021.8 |
| 20260503015216 | 43 | 302 | 2.0 | 2.0 | 0.00 | 0.12 | 0.12 | 59 | 1021.4 |
| 20260503014711 | 43 | 43 | 2.0 | 2.0 | 0.00 | 0.12 | 0.12 | 58 | 1021.7 |
| 20260503014210 | 43 | 293 | 3.0 | 5.0 | 0.00 | 0.12 | 0.12 | 58 | 1021.5 |
| 20260503013706 | 43 | 47 | 2.0 | 2.0 | 0.00 | 0.12 | 0.12 | 57 | 1021.5 |
| 20260503013204 | 43 | 53 | 1.0 | 2.0 | 0.00 | 0.12 | 0.12 | 58 | 1021.6 |
| 20260503012702 | 44 | 77 | 1.0 | 1.0 | 0.00 | 0.12 | 0.12 | 56 | 1021.6 |
| 20260503012158 | 44 | 309 | 3.0 | 3.0 | 0.00 | 0.12 | 0.12 | 56 | 1021.5 |
| 20260503011654 | 44 | 54 | 2.0 | 2.0 | 0.00 | 0.12 | 0.12 | 55 | 1021.6 |
| 20260503011152 | 44 | 95 | 1.0 | 2.0 | 0.00 | 0.12 | 0.12 | 55 | 1021.3 |
| 20260503010647 | 44 | 78 | 2.0 | 2.0 | 0.00 | 0.12 | 0.12 | 53 | 1021.4 |
| 20260503010145 | 45 | 282 | 3.0 | 3.0 | 0.00 | 0.12 | 0.12 | 52 | 1021.6 |
| 20260503005642 | 45 | 275 | 4.0 | 6.0 | 0.00 | 0.12 | 0.12 | 52 | 1021.3 |
| 20260503005139 | 45 | 345 | 3.0 | 3.0 | 0.00 | 0.12 | 0.12 | 51 | 1021.4 |
| 20260503004636 | 45 | 53 | 3.0 | 3.0 | 0.00 | 0.12 | 0.12 | 50 | 1021.4 |
| 20260503004134 | 46 | 67 | 3.0 | 5.0 | 0.00 | 0.12 | 0.12 | 51 | 1021.3 |
| 20260503003631 | 46 | 286 | 5.0 | 6.0 | 0.00 | 0.12 | 0.12 | 50 | 1021.2 |
| 20260503003128 | 46 | 66 | 2.0 | 2.0 | 0.00 | 0.12 | 0.12 | 50 | 1021.1 |
| 20260503002625 | 46 | 333 | 5.0 | 7.0 | 0.00 | 0.12 | 0.12 | 49 | 1021.0 |
| 20260503002122 | 46 | 4 | 5.0 | 7.0 | 0.00 | 0.12 | 0.12 | 49 | 1020.7 |
| 20260503001618 | 46 | 289 | 5.0 | 8.0 | 0.00 | 0.12 | 0.12 | 49 | 1020.7 |
| 20260503001115 | 47 | 11 | 8.0 | 11.0 | 0.00 | 0.12 | 0.12 | 48 | 1020.7 |
| 20260503000612 | 47 | 307 | 7.0 | 9.0 | 0.00 | 0.12 | 0.12 | 48 | 1020.7 |
| 20260503000109 | 47 | 352 | 8.0 | 11.0 | 0.00 | 0.12 | 0.12 | 47 | 1020.7 |
| 20260502235606 | 47 | 37 | 2.0 | 2.0 | 0.00 | 0.12 | 0.12 | 48 | 1020.6 |
| 20260502235104 | 47 | 304 | 6.0 | 7.0 | 0.00 | 0.12 | 0.12 | 47 | 1020.7 |
| 20260502234559 | 48 | 354 | 2.0 | 5.0 | 0.00 | 0.12 | 0.12 | 48 | 1020.6 |
| 20260502234058 | 48 | 285 | 6.0 | 8.0 | 0.00 | 0.12 | 0.12 | 46 | 1020.6 |
| 20260502233557 | 48 | 61 | 5.0 | 6.0 | 0.00 | 0.12 | 0.12 | 45 | 1020.6 |
| 20260502233055 | 48 | 275 | 5.0 | 7.0 | 0.00 | 0.12 | 0.12 | 45 | 1020.3 |
| 20260502232551 | 49 | 355 | 5.0 | 7.0 | 0.00 | 0.12 | 0.12 | 45 | 1020.4 |
| 20260502232049 | 49 | 121 | 5.0 | 7.0 | 0.00 | 0.12 | 0.12 | 45 | 1020.5 |
| 20260502231545 | 49 | 343 | 8.0 | 11.0 | 0.00 | 0.12 | 0.12 | 43 | 1020.2 |
| 20260502231043 | 50 | 327 | 7.0 | 10.0 | 0.00 | 0.12 | 0.12 | 44 | 1020.2 |
| 20260502230541 | 50 | 64 | 5.0 | 6.0 | 0.00 | 0.12 | 0.12 | 44 | 1020.2 |
| 20260502230039 | 50 | 329 | 6.0 | 8.0 | 0.00 | 0.12 | 0.12 | 45 | 1020.2 |
| 20260502225534 | 51 | 340 | 11.0 | 14.0 | 0.00 | 0.12 | 0.12 | 43 | 1020.1 |
| 20260502225032 | 50 | 269 | 4.0 | 5.0 | 0.00 | 0.12 | 0.12 | 43 | 1020.1 |
| 20260502224528 | 50 | 54 | 4.0 | 5.0 | 0.00 | 0.12 | 0.12 | 43 | 1020.0 |
| 20260502224025 | 50 | 333 | 5.0 | 10.0 | 0.00 | 0.12 | 0.12 | 43 | 1019.9 |
| 20260502223523 | 50 | 317 | 9.0 | 13.0 | 0.00 | 0.12 | 0.12 | 41 | 1019.8 |
| 20260502223021 | 51 | 324 | 9.0 | 13.0 | 0.00 | 0.12 | 0.12 | 42 | 1019.9 |
| 20260502222518 | 51 | 340 | 7.0 | 11.0 | 0.00 | 0.12 | 0.12 | 41 | 1019.9 |
| 20260502222014 | 51 | 315 | 7.0 | 8.0 | 0.00 | 0.12 | 0.12 | 41 | 1019.8 |
| 20260502221510 | 51 | 327 | 8.0 | 9.0 | 0.00 | 0.12 | 0.12 | 39 | 1019.7 |
| 20260502221008 | 51 | 341 | 7.0 | 8.0 | 0.00 | 0.12 | 0.12 | 40 | 1019.5 |
| 20260502220503 | 51 | 358 | 4.0 | 5.0 | 0.00 | 0.12 | 0.12 | 41 | 1019.8 |
| 20260502220000 | 52 | 274 | 3.0 | 5.0 | 0.00 | 0.12 | 0.12 | 42 | 1019.8 |
| 20260502215457 | 52 | 349 | 4.0 | 6.0 | 0.00 | 0.12 | 0.12 | 41 | 1019.6 |
| 20260502214954 | 52 | 343 | 5.0 | 6.0 | 0.00 | 0.12 | 0.12 | 41 | 1019.6 |
| 20260502214451 | 52 | 10 | 3.0 | 3.0 | 0.00 | 0.12 | 0.12 | 41 | 1019.5 |
| 20260502213948 | 52 | 294 | 7.0 | 9.0 | 0.00 | 0.12 | 0.12 | 40 | 1019.6 |
| 20260502213445 | 52 | 170 | 6.0 | 7.0 | 0.00 | 0.12 | 0.12 | 41 | 1019.6 |
| 20260502212943 | 52 | 290 | 5.0 | 6.0 | 0.00 | 0.12 | 0.12 | 41 | 1019.5 |
| 20260502212442 | 52 | 288 | 10.0 | 15.0 | 0.00 | 0.12 | 0.12 | 39 | 1019.6 |
| 20260502211939 | 53 | 282 | 4.0 | 5.0 | 0.00 | 0.12 | 0.12 | 40 | 1019.6 |
| 20260502211434 | 53 | 23 | 5.0 | 7.0 | 0.00 | 0.12 | 0.12 | 40 | 1019.6 |
| 20260502210932 | 52 | 270 | 4.0 | 5.0 | 0.00 | 0.12 | 0.12 | 42 | 1019.7 |
| 20260502210428 | 52 | 297 | 13.0 | 17.0 | 0.00 | 0.12 | 0.12 | 39 | 1019.7 |
| 20260502205926 | 52 | 353 | 5.0 | 7.0 | 0.00 | 0.12 | 0.12 | 41 | 1019.6 |
| 20260502205422 | 53 | 2 | 4.0 | 7.0 | 0.00 | 0.12 | 0.12 | 41 | 1019.5 |
| 20260502204919 | 53 | 335 | 8.0 | 10.0 | 0.00 | 0.12 | 0.12 | 38 | 1019.5 |
| 20260502204416 | 54 | 349 | 5.0 | 7.0 | 0.00 | 0.12 | 0.12 | 41 | 1019.5 |
| 20260502203914 | 53 | 295 | 7.0 | 8.0 | 0.00 | 0.12 | 0.12 | 38 | 1019.6 |
| 20260502203411 | 53 | 338 | 6.0 | 8.0 | 0.00 | 0.12 | 0.12 | 41 | 1019.6 |
| 20260502202907 | 53 | 289 | 10.0 | 13.0 | 0.00 | 0.12 | 0.12 | 39 | 1019.7 |
| 20260502202404 | 53 | 312 | 9.0 | 10.0 | 0.00 | 0.12 | 0.12 | 41 | 1019.7 |
| 20260502201902 | 53 | 341 | 11.0 | 13.0 | 0.00 | 0.12 | 0.12 | 39 | 1019.8 |
| 20260502201358 | 52 | 79 | 8.0 | 13.0 | 0.00 | 0.12 | 0.12 | 40 | 1019.8 |
| 20260502200855 | 53 | 14 | 9.0 | 10.0 | 0.00 | 0.12 | 0.12 | 41 | 1019.7 |
| 20260502200350 | 53 | 280 | 6.0 | 8.0 | 0.00 | 0.12 | 0.12 | 42 | 1019.8 |
| 20260502195848 | 53 | 267 | 11.0 | 15.0 | 0.00 | 0.12 | 0.12 | 43 | 1019.7 |
| 20260502195344 | 53 | 250 | 6.0 | 8.0 | 0.00 | 0.12 | 0.12 | 42 | 1020.0 |
| 20260502194841 | 53 | 303 | 5.0 | 9.0 | 0.00 | 0.12 | 0.12 | 44 | 1020.0 |
| 20260502194338 | 53 | 276 | 10.0 | 10.0 | 0.00 | 0.12 | 0.12 | 41 | 1019.8 |
| 20260502193834 | 54 | 318 | 11.0 | 14.0 | 0.00 | 0.12 | 0.12 | 40 | 1020.0 |
| 20260502193331 | 53 | 354 | 5.0 | 7.0 | 0.00 | 0.12 | 0.12 | 45 | 1019.9 |
| 20260502192827 | 54 | 270 | 11.0 | 16.0 | 0.00 | 0.12 | 0.12 | 40 | 1020.0 |
| 20260502192324 | 53 | 15 | 7.0 | 8.0 | 0.00 | 0.12 | 0.12 | 41 | 1020.2 |
| 20260502191821 | 53 | 274 | 8.0 | 11.0 | 0.00 | 0.12 | 0.12 | 39 | 1020.1 |
| 20260502191319 | 53 | 287 | 5.0 | 8.0 | 0.00 | 0.12 | 0.12 | 42 | 1020.0 |
| 20260502190816 | 54 | 283 | 7.0 | 9.0 | 0.00 | 0.12 | 0.12 | 43 | 1020.2 |
| 20260502190314 | 54 | 299 | 7.0 | 9.0 | 0.00 | 0.12 | 0.12 | 45 | 1020.0 |
| 20260502185809 | 53 | 42 | 6.0 | 7.0 | 0.00 | 0.12 | 0.12 | 47 | 1020.1 |
| 20260502185305 | 53 | 306 | 7.0 | 9.0 | 0.00 | 0.12 | 0.12 | 45 | 1020.2 |
| 20260502184802 | 53 | 344 | 8.0 | 9.0 | 0.00 | 0.12 | 0.12 | 47 | 1020.1 |
| 20260502184257 | 54 | 309 | 6.0 | 10.0 | 0.00 | 0.12 | 0.12 | 50 | 1020.1 |
| 20260502183754 | 53 | 275 | 10.0 | 15.0 | 0.00 | 0.12 | 0.12 | 47 | 1020.0 |
| 20260502183250 | 54 | 289 | 7.0 | 8.0 | 0.00 | 0.12 | 0.12 | 49 | 1020.0 |
| 20260502182745 | 54 | 275 | 7.0 | 9.0 | 0.00 | 0.12 | 0.12 | 45 | 1020.0 |
| 20260502182241 | 55 | 354 | 6.0 | 8.0 | 0.00 | 0.12 | 0.12 | 52 | 1019.9 |
| 20260502181738 | 54 | 334 | 5.0 | 7.0 | 0.00 | 0.12 | 0.12 | 50 | 1020.0 |
| 20260502181237 | 54 | 61 | 4.0 | 5.0 | 0.00 | 0.12 | 0.12 | 51 | 1019.9 |
| 20260502180733 | 54 | 303 | 5.0 | 6.0 | 0.00 | 0.12 | 0.12 | 50 | 1020.1 |
| 20260502180231 | 53 | 298 | 5.0 | 6.0 | 0.00 | 0.12 | 0.12 | 53 | 1019.9 |
| 20260502170150 | 51 | 38 | 3.0 | 3.0 | 0.00 | 0.12 | 0.12 | 59 | 1020.3 |
| 20260502164136 | 52 | 330 | 5.0 | 6.0 | 0.00 | 0.12 | 0.12 | 56 | 1020.5 |
| 20260502163632 | 51 | 68 | 3.0 | 3.0 | 0.00 | 0.12 | 0.12 | 59 | 1020.6 |
| 20260502163129 | 51 | 46 | 3.0 | 3.0 | 0.00 | 0.12 | 0.12 | 60 | 1020.6 |
| 20260502162626 | 51 | 23 | 3.0 | 3.0 | 0.00 | 0.12 | 0.12 | 62 | 1020.7 |
| 20260502162123 | 50 | 323 | 4.0 | 5.0 | 0.00 | 0.12 | 0.12 | 60 | 1021.0 |
| 20260502161620 | 50 | 357 | 3.0 | 3.0 | 0.00 | 0.12 | 0.12 | 59 | 1021.0 |
| 20260502161117 | 49 | 305 | 6.0 | 7.0 | 0.00 | 0.12 | 0.12 | 61 | 1021.0 |
| 20260502160615 | 49 | 348 | 5.0 | 7.0 | 0.00 | 0.12 | 0.12 | 63 | 1020.9 |
| 20260502160114 | 48 | 324 | 6.0 | 7.0 | 0.00 | 0.12 | 0.12 | 65 | 1020.9 |
| 20260502152028 | 48 | 292 | 6.0 | 8.0 | 0.00 | 0.12 | 0.12 | 64 | 1021.0 |
| 20260502151525 | 48 | 251 | 8.0 | 9.0 | 0.00 | 0.12 | 0.12 | 68 | 1021.2 |
| 20260502151022 | 48 | 344 | 6.0 | 7.0 | 0.00 | 0.12 | 0.12 | 68 | 1020.9 |
| 20260502150520 | 48 | 198 | 2.0 | 3.0 | 0.00 | 0.12 | 0.12 | 69 | 1021.2 |
| 20260502130358 | 43 | 326 | 2.0 | 2.0 | 0.00 | 0.12 | 0.12 | 88 | 1021.1 |
| 20260502123341 | 42 | 46 | 1.0 | 2.0 | 0.00 | 0.12 | 0.12 | 92 | 1021.2 |
| 20260502122838 | 42 | 293 | 3.0 | 3.0 | 0.00 | 0.12 | 0.12 | 93 | 1021.3 |
| 20260502122334 | 42 | 35 | 2.0 | 2.0 | 0.00 | 0.12 | 0.12 | 93 | 1021.1 |
| 20260502121833 | 42 | 66 | 1.0 | 1.0 | 0.00 | 0.12 | 0.12 | 93 | 1021.3 |
| 20260502121330 | 42 | 320 | 1.0 | 1.0 | 0.00 | 0.12 | 0.12 | 94 | 1021.2 |
| 20260502120827 | 42 | 315 | 1.0 | 2.0 | 0.00 | 0.12 | 0.12 | 94 | 1021.1 |
| 20260502120323 | 42 | 260 | 1.0 | 1.0 | 0.00 | 0.12 | 0.12 | 94 | 1021.0 |
| 20260502115821 | 42 | 62 | 2.0 | 2.0 | 0.00 | 0.12 | 0.12 | 95 | 1021.0 |
| 20260502115318 | 42 | 303 | 2.0 | 2.0 | 0.00 | 0.12 | 0.12 | 95 | 1021.0 |
| 20260502114814 | 42 | 326 | 3.0 | 3.0 | 0.00 | 0.12 | 0.12 | 95 | 1021.1 |
| 20260502114311 | 41 | 50 | 2.0 | 2.0 | 0.00 | 0.12 | 0.12 | 96 | 1020.7 |
| 20260502113808 | 41 | 61 | 3.0 | 3.0 | 0.00 | 0.12 | 0.12 | 97 | 1021.1 |
| 20260502113306 | 42 | 69 | 2.0 | 2.0 | 0.00 | 0.12 | 0.12 | 97 | 1020.9 |
| 20260502112803 | 41 | 287 | 3.0 | 3.0 | 0.00 | 0.12 | 0.12 | 97 | 1020.5 |
| 20260502112301 | 41 | 320 | 3.0 | 3.0 | 0.00 | 0.12 | 0.12 | 98 | 1020.5 |
| 20260502111758 | 42 | 311 | 1.0 | 1.0 | 0.00 | 0.12 | 0.12 | 98 | 1020.7 |
| 20260502111255 | 42 | 358 | 4.0 | 6.0 | 0.00 | 0.12 | 0.12 | 98 | 1020.5 |
| 20260502110753 | 42 | 288 | 2.0 | 2.0 | 0.00 | 0.12 | 0.12 | 98 | 1021.0 |
| 20260502110250 | 42 | 352 | 2.0 | 2.0 | 0.00 | 0.12 | 0.12 | 98 | 1020.6 |
| 20260502105748 | 42 | 283 | 2.0 | 2.0 | 0.00 | 0.12 | 0.12 | 98 | 1020.6 |
| 20260502105244 | 42 | 337 | 4.0 | 6.0 | 0.00 | 0.12 | 0.12 | 98 | 1020.5 |
| 20260502104742 | 42 | 116 | 1.0 | 2.0 | 0.00 | 0.12 | 0.12 | 98 | 1020.3 |
| 20260502104239 | 42 | 181 | 3.0 | 3.0 | 0.00 | 0.12 | 0.12 | 98 | 1020.4 |
| 20260502103737 | 42 | 1 | 3.0 | 3.0 | 0.00 | 0.12 | 0.12 | 98 | 1020.3 |
| 20260502103234 | 42 | 68 | 2.0 | 2.0 | 0.00 | 0.12 | 0.12 | 98 | 1020.2 |
| 20260502102731 | 42 | 223 | 2.0 | 2.0 | 0.00 | 0.12 | 0.12 | 98 | 1020.0 |
| 20260502102227 | 42 | 75 | 1.0 | 1.0 | 0.00 | 0.12 | 0.12 | 98 | 1020.1 |
| 20260502101726 | 42 | 82 | 3.0 | 3.0 | 0.07 | 0.12 | 0.12 | 98 | 1020.2 |
| 20260502101224 | 42 | 84 | 3.0 | 3.0 | 0.19 | 0.12 | 0.12 | 98 | 1019.9 |
| 20260502100721 | 42 | 53 | 3.0 | 3.0 | 0.19 | 0.11 | 0.11 | 98 | 1019.9 |
| 20260502100220 | 43 | 325 | 7.0 | 8.0 | 0.14 | 0.10 | 0.10 | 98 | 1020.2 |
| 20260502091154 | 45 | 124 | 1.0 | 1.0 | 0.00 | 0.08 | 0.08 | 98 | 1019.7 |
| 20260502090651 | 45 | 124 | 1.0 | 1.0 | 0.00 | 0.08 | 0.08 | 98 | 1019.6 |
| 20260502090148 | 45 | 120 | 0.0 | 0.0 | 0.00 | 0.08 | 0.08 | 98 | 1019.5 |
| 20260502080110 | 45 | 117 | 1.0 | 1.0 | 0.00 | 0.08 | 0.08 | 98 | 1019.7 |
| 20260502071043 | 45 | 116 | 1.0 | 1.0 | 0.00 | 0.08 | 0.08 | 98 | 1020.0 |
| 20260502070541 | 45 | 122 | 1.0 | 1.0 | 0.00 | 0.08 | 0.08 | 98 | 1019.9 |
| 20260502070039 | 45 | 115 | 0.0 | 0.0 | 0.00 | 0.08 | 0.08 | 98 | 1019.9 |
| 20260502065538 | 45 | 109 | 0.0 | 0.0 | 0.00 | 0.08 | 0.08 | 98 | 1019.9 |
| 20260502065035 | 45 | 110 | 1.0 | 2.0 | 0.00 | 0.08 | 0.08 | 98 | 1019.9 |
| 20260502064533 | 45 | 116 | 1.0 | 1.0 | 0.00 | 0.08 | 0.08 | 98 | 1019.9 |
| 20260502064030 | 45 | 115 | 1.0 | 1.0 | 0.00 | 0.08 | 0.08 | 98 | 1020.0 |
| 20260502063527 | 45 | 116 | 1.0 | 1.0 | 0.00 | 0.08 | 0.08 | 98 | 1020.0 |
| 20260502063020 | 45 | 112 | 1.0 | 1.0 | 0.05 | 0.08 | 0.08 | 97 | 1019.8 |
| 20260502062516 | 45 | 115 | 0.0 | 0.0 | 0.05 | 0.08 | 0.08 | 97 | 1019.9 |
| 20260502062015 | 45 | 127 | 1.0 | 1.0 | 0.00 | 0.07 | 0.07 | 97 | 1019.9 |
| 20260502061512 | 45 | 105 | 0.0 | 1.0 | 0.00 | 0.07 | 0.07 | 97 | 1019.9 |
| 20260502061009 | 45 | 118 | 1.0 | 1.0 | 0.07 | 0.07 | 0.07 | 97 | 1019.9 |
| 20260502060504 | 45 | 106 | 1.0 | 1.0 | 0.07 | 0.07 | 0.07 | 97 | 1020.2 |
| 20260502060001 | 45 | 113 | 0.0 | 0.0 | 0.00 | 0.06 | 0.06 | 97 | 1020.4 |
| 20260502055458 | 45 | 108 | 0.0 | 0.0 | 0.00 | 0.06 | 0.06 | 97 | 1020.2 |
| 20260502054952 | 45 | 112 | 0.0 | 0.0 | 0.00 | 0.06 | 0.06 | 97 | 1020.2 |
| 20260502054449 | 45 | 116 | 1.0 | 1.0 | 0.00 | 0.06 | 0.06 | 97 | 1020.2 |
| 20260502053946 | 45 | 97 | 1.0 | 2.0 | 0.00 | 0.06 | 0.06 | 97 | 1020.0 |
| 20260502053443 | 45 | 84 | 0.0 | 1.0 | 0.00 | 0.06 | 0.06 | 97 | 1019.7 |
| 20260502052941 | 45 | 95 | 0.0 | 0.0 | 0.00 | 0.06 | 0.06 | 97 | 1020.1 |
| 20260502052439 | 45 | 97 | 0.0 | 0.0 | 0.00 | 0.06 | 0.06 | 97 | 1020.5 |
| 20260502051937 | 45 | 99 | 1.0 | 1.0 | 0.00 | 0.06 | 0.06 | 97 | 1020.3 |
| 20260502051435 | 45 | 130 | 1.0 | 2.0 | 0.00 | 0.06 | 0.06 | 97 | 1020.6 |
| 20260502050932 | 45 | 119 | 1.0 | 1.0 | 0.05 | 0.06 | 0.06 | 97 | 1020.6 |
| 20260502050429 | 45 | 103 | 0.0 | 0.0 | 0.05 | 0.06 | 0.06 | 97 | 1020.5 |
| 20260502045926 | 45 | 122 | 1.0 | 1.0 | 0.05 | 0.06 | 0.06 | 97 | 1020.7 |
| 20260502045422 | 45 | 128 | 1.0 | 1.0 | 0.00 | 0.05 | 0.05 | 96 | 1020.6 |
| 20260502044920 | 45 | 114 | 0.0 | 0.0 | 0.00 | 0.05 | 0.05 | 96 | 1020.3 |
| 20260502044415 | 45 | 135 | 1.0 | 1.0 | 0.00 | 0.05 | 0.05 | 96 | 1020.4 |
| 20260502043912 | 45 | 110 | 3.0 | 3.0 | 0.00 | 0.05 | 0.05 | 96 | 1020.2 |
| 20260502043410 | 46 | 122 | 2.0 | 2.0 | 0.00 | 0.05 | 0.05 | 96 | 1020.3 |
| 20260502042909 | 46 | 121 | 2.0 | 2.0 | 0.07 | 0.05 | 0.05 | 96 | 1020.2 |
| 20260502042409 | 46 | 118 | 1.0 | 1.0 | 0.19 | 0.05 | 0.05 | 95 | 1020.3 |
| 20260502041904 | 45 | 102 | 1.0 | 1.0 | 0.17 | 0.04 | 0.04 | 95 | 1020.5 |
| 20260502041401 | 46 | 105 | 0.0 | 0.0 | 0.19 | 0.03 | 0.03 | 95 | 1020.5 |
| 20260502040859 | 46 | 117 | 0.0 | 0.0 | 0.12 | 0.01 | 0.01 | 95 | 1020.6 |
| 20260502040355 | 46 | 117 | 0.0 | 0.0 | 0.12 | 0.00 | 0.00 | 95 | 1020.7 |
| 20260502035851 | 46 | 184 | 1.0 | 1.0 | 0.12 | 0.11 | 0.11 | 95 | 1020.6 |
| 20260502035348 | 46 | 253 | 2.0 | 2.0 | 0.05 | 0.10 | 0.10 | 95 | 1020.9 |
| 20260502034845 | 46 | 88 | 0.0 | 0.0 | 0.07 | 0.09 | 0.09 | 95 | 1020.9 |
| 20260502034344 | 46 | 88 | 0.0 | 0.0 | 0.07 | 0.09 | 0.09 | 94 | 1020.5 |